This demonstration page uses our WeatherBlox Daily Observations layout. Learn more.

Left ArrowRight Arrow

39.01783, -85.05884

Hourly Observations for February 25, 2021

Temp ( °F °C ) Dew Point ( °F °C ) Humidity (%) Winds ( mph kmh ) Pressure ( in mb ) Visibility ( mi km ) Precip ( " mm )
12:52 am 00:52 Cloudy 37 2.8 30 -1.1 76 76 N 10 17 30.18 1022 10 16 0.00 0.00
1:04 am 01:04 Cloudy 37 2.8 30 -1.1 76 76 N 12 19 30.23 1024 10 16 0.00 0.00
1:52 am 01:52 Cloudy 37 2.8 30 -1.1 76 76 N 9 15 30.20 1023 10 16 0.00 0.00
2:42 am 02:42 Mostly Cloudy 35 1.7 28 -2.2 76 76 N 9 15 30.26 1025 10 16 0.00 0.00
2:52 am 02:52 Mostly Cloudy 35 1.7 28 -2.2 76 76 N 9 15 30.22 1023 10 16 0.00 0.00
3:52 am 03:52 Partly Cloudy 33 0.6 27 -2.8 78 78 N 9 15 30.23 1024 10 16 0.00 0.00
4:52 am 04:52 Clear 31 -0.6 26 -3.3 82 82 N 7 11 30.25 1024 10 16 0.00 0.00
5:52 am 05:52 Clear 31 -0.6 26 -3.3 82 82 N 8 13 30.27 1025 10 16 0.00 0.00
6:52 am 06:52 Mostly Clear 32 0 26 -3.3 79 79 N 7 11 30.28 1025 10 16 0.00 0.00
7:52 am 07:52 Partly Cloudy 31 -0.6 26 -3.3 82 82 NNW 6 9 30.30 1026 10 16 0.00 0.00
8:52 am 08:52 Mostly Sunny 34 1.1 28 -2.2 79 79 N 8 13 30.33 1027 10 16 0.00 0.00
9:52 am 09:52 Mostly Sunny 37 2.8 28 -2.2 70 70 N 5 7 30.35 1028 10 16 0.00 0.00
10:52 am 10:52 Mostly Sunny 41 5 28 -2.2 60 60 N 8 13 30.36 1028 10 16 0.00 0.00
11:52 am 11:52 Partly Cloudy 42 5.6 28 -2.2 58 58 NNW 9 15 30.36 1028 10 16 0.00 0.00
12:52 pm 12:52 Mostly Sunny 44 6.7 27 -2.8 51 51 N 6 9 30.35 1028 10 16 0.00 0.00
1:52 pm 13:52 Mostly Sunny 46 7.8 26 -3.3 46 46 NNW 3 6 30.31 1026 10 16 0.00 0.00
2:52 pm 14:52 Mostly Sunny 47 8.3 23 -5 39 39 N 10 17 30.31 1027 10 16 0.00 0.00
3:52 pm 15:52 Mostly Sunny 47 8.3 23 -5 39 39 N 9 15 30.31 1026 10 16 0.00 0.00
4:52 pm 16:52 Partly Cloudy 46 7.8 24 -4.4 42 42 N 7 11 30.31 1026 10 16 0.00 0.00
5:52 pm 17:52 Mostly Cloudy 44 6.7 25 -3.9 47 47 NNW 9 15 30.32 1027 10 16 0.00 0.00
6:52 pm 18:52 Mostly Cloudy 40 4.4 24 -4.4 53 53 N 10 17 30.34 1027 10 16 0.00 0.00
7:52 pm 19:52 Cloudy 39 3.9 25 -3.9 57 57 N 7 11 30.35 1028 10 16 0.00 0.00
8:52 pm 20:52 Cloudy 38 3.3 25 -3.9 60 60 N 6 9 30.35 1028 10 16 0.00 0.00
9:52 pm 21:52 Cloudy 38 3.3 26 -3.3 62 62 N 7 11 30.35 1028 10 16 0.00 0.00
10:52 pm 22:52 Cloudy 40 4.4 25 -3.9 55 55 NE 3 6 30.33 1027 10 16 0.00 0.00
11:52 pm 23:52 Cloudy 38 3.3 26 -3.3 62 62 E 6 9 30.33 1027 10 16 0.00 0.00

Powered by AerisWeather